ZSMPI FYWH-FAOB

Flight info

Callsign ZSMPI
Flight time 2h 27m
Altitude 26000
Route UVORI1A UVORI UN185 KEBAT/N0310F280 UN185 OKLOK UQ23 DUMDO
Aircraft B350/L-SBGRW/S

Departure

Time 2026-04-23 06:48
Airport Hosea Kutako International Airport (FYWH)

Arrival

Time 2026-04-23 09:15
Airport Overberg Airport (FAOB)
Time Latitude Longitude Altitude Speed Heading
2026-04-23 06:37 -22.48717 17.46049 5613 ft 0 kts 333°
2026-04-23 06:43 -22.48713 17.46047 5611 ft 4 kts 333°
2026-04-23 06:43 -22.48662 17.46019 5610 ft 0 kts 333°
2026-04-23 06:43 -22.48647 17.46011 5617 ft 8 kts 331°
2026-04-23 06:44 -22.48642 17.45941 5613 ft 13 kts 244°
2026-04-23 06:44 -22.48684 17.45848 5618 ft 15 kts 244°
2026-04-23 06:44 -22.48734 17.45741 5619 ft 17 kts 244°
2026-04-23 06:44 -22.48790 17.45621 5622 ft 19 kts 244°
2026-04-23 06:45 -22.48793 17.45563 5624 ft 0 kts 307°
2026-04-23 06:46 -22.48781 17.45549 5624 ft 11 kts 317°
2026-04-23 06:46 -22.48702 17.45554 5622 ft 15 kts 65°
2026-04-23 06:47 -22.48565 17.45854 5615 ft 80 kts 64°
2026-04-23 06:47 -22.48228 17.46584 5593 ft 132 kts 62°
2026-04-23 06:47 -22.47758 17.47589 5653 ft 168 kts 62°
2026-04-23 06:47 -22.47189 17.48821 5843 ft 193 kts 62°
2026-04-23 06:48 -22.46573 17.50133 6342 ft 194 kts 61°
2026-04-23 06:48 -22.45976 17.51407 6975 ft 188 kts 59°
2026-04-23 06:48 -22.45403 17.52655 7583 ft 180 kts 60°
2026-04-23 06:48 -22.44871 17.53831 8251 ft 171 kts 62°
2026-04-23 06:49 -22.44629 17.55143 8654 ft 188 kts 88°
2026-04-23 06:49 -22.44988 17.56504 9181 ft 196 kts 116°
2026-04-23 06:49 -22.45901 17.57602 9740 ft 201 kts 142°
2026-04-23 06:49 -22.47204 17.58167 10248 ft 206 kts 173°
2026-04-23 06:50 -22.48577 17.58046 10954 ft 190 kts 191°
2026-04-23 06:50 -22.49894 17.57922 11432 ft 196 kts 178°
2026-04-23 06:50 -22.51282 17.58235 11684 ft 213 kts 162°
2026-04-23 06:50 -22.52732 17.58782 11895 ft 228 kts 161°
2026-04-23 06:51 -22.54271 17.59331 12189 ft 233 kts 163°
2026-04-23 06:51 -22.55802 17.59848 12586 ft 235 kts 165°
2026-04-23 06:51 -22.57366 17.60374 13011 ft 235 kts 165°
2026-04-23 06:51 -22.58929 17.60908 13428 ft 236 kts 165°
2026-04-23 06:52 -22.60499 17.61445 13831 ft 237 kts 165°
2026-04-23 06:52 -22.62075 17.61983 14198 ft 238 kts 166°
2026-04-23 06:52 -22.63654 17.62522 14574 ft 238 kts 166°
2026-04-23 06:52 -22.65235 17.63060 14922 ft 239 kts 166°
2026-04-23 06:53 -22.66824 17.63603 15253 ft 240 kts 166°
2026-04-23 06:53 -22.68415 17.64014 15585 ft 236 kts 181°
2026-04-23 06:53 -22.70045 17.63924 15910 ft 235 kts 189°
2026-04-23 06:53 -22.71675 17.63758 16241 ft 236 kts 188°
2026-04-23 06:54 -22.73318 17.63626 16553 ft 237 kts 188°
2026-04-23 06:54 -22.74969 17.63505 16929 ft 238 kts 188°
2026-04-23 06:54 -22.76621 17.63381 17308 ft 239 kts 188°
2026-04-23 06:54 -22.78283 17.63253 17672 ft 240 kts 188°
2026-04-23 06:55 -22.79952 17.63124 18045 ft 241 kts 188°
2026-04-23 06:55 -22.81604 17.62998 18385 ft 242 kts 188°
2026-04-23 06:55 -22.83288 17.62869 18693 ft 243 kts 188°
2026-04-23 06:55 -22.84979 17.62739 18990 ft 244 kts 188°
2026-04-23 06:56 -22.86680 17.62610 19286 ft 246 kts 189°
2026-04-23 06:56 -22.88394 17.62478 19545 ft 248 kts 189°
2026-04-23 06:56 -22.90113 17.62346 19837 ft 248 kts 189°
2026-04-23 06:56 -22.91841 17.62213 20108 ft 250 kts 189°
2026-04-23 06:57 -22.93576 17.62080 20386 ft 251 kts 189°
2026-04-23 06:57 -22.95298 17.61948 20684 ft 252 kts 190°
2026-04-23 06:57 -22.97050 17.61815 20972 ft 253 kts 190°
2026-04-23 06:57 -22.98814 17.61677 21274 ft 254 kts 190°
2026-04-23 06:58 -23.00584 17.61541 21569 ft 256 kts 190°
2026-04-23 06:58 -23.02363 17.61405 21853 ft 257 kts 191°
2026-04-23 06:58 -23.04148 17.61269 22138 ft 258 kts 191°
2026-04-23 06:58 -23.05940 17.61130 22409 ft 259 kts 191°
2026-04-23 06:59 -23.07742 17.60992 22680 ft 260 kts 191°
2026-04-23 06:59 -23.09553 17.60853 22942 ft 261 kts 191°
2026-04-23 06:59 -23.11345 17.60715 23199 ft 262 kts 191°
2026-04-23 06:59 -23.13171 17.60574 23450 ft 264 kts 191°
2026-04-23 07:00 -23.15002 17.60434 23692 ft 265 kts 191°
2026-04-23 07:00 -23.16845 17.60291 23895 ft 266 kts 192°
2026-04-23 07:00 -23.18691 17.60150 24096 ft 267 kts 191°
2026-04-23 07:00 -23.20548 17.60007 24286 ft 268 kts 192°
2026-04-23 07:01 -23.22411 17.59863 24456 ft 270 kts 192°
2026-04-23 07:01 -23.24287 17.59725 24643 ft 272 kts 189°
2026-04-23 07:01 -23.26202 17.59904 24822 ft 280 kts 178°
2026-04-23 07:01 -23.28102 17.60258 25007 ft 282 kts 177°
2026-04-23 07:02 -23.30040 17.60608 25182 ft 282 kts 179°
2026-04-23 07:02 -23.31985 17.60917 25364 ft 283 kts 179°
2026-04-23 07:02 -23.33938 17.61228 25535 ft 284 kts 179°
2026-04-23 07:02 -23.35898 17.61553 25709 ft 286 kts 179°
2026-04-23 07:03 -23.37868 17.61880 25868 ft 287 kts 179°
2026-04-23 07:03 -23.39843 17.62205 26031 ft 288 kts 179°
2026-04-23 07:03 -23.41827 17.62531 26184 ft 289 kts 179°
2026-04-23 07:03 -23.43791 17.62854 26334 ft 290 kts 179°
2026-04-23 07:04 -23.45787 17.63183 26480 ft 291 kts 179°
2026-04-23 07:04 -23.47792 17.63514 26624 ft 292 kts 179°
2026-04-23 07:04 -23.49803 17.63845 26772 ft 293 kts 179°
2026-04-23 07:04 -23.51823 17.64177 26914 ft 294 kts 179°
2026-04-23 07:05 -23.53846 17.64509 27060 ft 295 kts 179°
2026-04-23 07:05 -23.55877 17.64843 27196 ft 296 kts 179°
2026-04-23 07:05 -23.57915 17.65178 27323 ft 297 kts 179°
2026-04-23 07:05 -23.59932 17.65509 27454 ft 297 kts 179°
2026-04-23 07:06 -23.61980 17.65847 27586 ft 298 kts 179°
2026-04-23 07:06 -23.64034 17.66185 27712 ft 299 kts 179°
2026-04-23 07:06 -23.66096 17.66524 27833 ft 300 kts 179°
2026-04-23 07:06 -23.68163 17.66864 27957 ft 301 kts 179°
2026-04-23 07:07 -23.70235 17.67206 28070 ft 302 kts 179°
2026-04-23 07:07 -23.72322 17.67549 28104 ft 305 kts 179°
2026-04-23 07:07 -23.76576 17.68249 28119 ft 313 kts 179°
2026-04-23 07:08 -23.80886 17.68952 28122 ft 317 kts 179°
2026-04-23 07:08 -23.85279 17.69666 28120 ft 321 kts 179°
2026-04-23 07:09 -23.89707 17.70387 28122 ft 323 kts 179°
2026-04-23 07:09 -23.94160 17.71112 28123 ft 324 kts 179°
2026-04-23 07:10 -23.98598 17.71835 28121 ft 325 kts 179°
2026-04-23 07:10 -24.03079 17.72567 28124 ft 326 kts 179°
2026-04-23 07:11 -24.07566 17.73298 28124 ft 326 kts 179°
2026-04-23 07:12 -24.14274 17.74395 28122 ft 327 kts 179°
2026-04-23 07:12 -24.18770 17.75129 28122 ft 327 kts 179°
2026-04-23 07:13 -24.23266 17.75865 28123 ft 327 kts 179°
2026-04-23 07:13 -24.27764 17.76601 28127 ft 327 kts 179°
2026-04-23 07:14 -24.32231 17.77334 28130 ft 327 kts 179°
2026-04-23 07:14 -24.36728 17.78071 28129 ft 327 kts 179°
2026-04-23 07:15 -24.41229 17.78809 28128 ft 327 kts 179°
2026-04-23 07:15 -24.45727 17.79549 28132 ft 327 kts 179°
2026-04-23 07:16 -24.50194 17.80280 28127 ft 327 kts 179°
2026-04-23 07:16 -24.54690 17.81000 28128 ft 326 kts 180°
2026-04-23 07:17 -24.59185 17.81722 28132 ft 326 kts 180°
2026-04-23 07:17 -24.63674 17.82444 28132 ft 326 kts 180°
2026-04-23 07:18 -24.68162 17.83165 28136 ft 326 kts 180°
2026-04-23 07:18 -24.72616 17.83883 28133 ft 326 kts 180°
2026-04-23 07:19 -24.77096 17.84604 28134 ft 325 kts 180°
2026-04-23 07:19 -24.81579 17.85327 28133 ft 326 kts 180°
2026-04-23 07:20 -24.86060 17.86050 28137 ft 326 kts 180°
2026-04-23 07:20 -24.90511 17.86768 28136 ft 325 kts 180°
2026-04-23 07:21 -24.94991 17.87493 28136 ft 325 kts 180°
2026-04-23 07:21 -24.99467 17.88216 28140 ft 325 kts 179°
2026-04-23 07:22 -25.03939 17.88941 28138 ft 325 kts 179°
2026-04-23 07:22 -25.08379 17.89669 28143 ft 325 kts 179°
2026-04-23 07:23 -25.12845 17.90398 28141 ft 324 kts 179°
2026-04-23 07:23 -25.17311 17.91129 28141 ft 324 kts 179°
2026-04-23 07:24 -25.21777 17.91861 28139 ft 324 kts 179°
2026-04-23 07:24 -25.26208 17.92587 28141 ft 324 kts 179°
2026-04-23 07:25 -25.30667 17.93319 28139 ft 324 kts 179°
2026-04-23 07:25 -25.35121 17.94049 28140 ft 323 kts 179°
2026-04-23 07:26 -25.39574 17.94781 28141 ft 323 kts 178°
2026-04-23 07:26 -25.43993 17.95508 28140 ft 323 kts 178°
2026-04-23 07:27 -25.48435 17.96238 28143 ft 323 kts 178°
2026-04-23 07:27 -25.52876 17.96970 28142 ft 322 kts 178°
2026-04-23 07:28 -25.57311 17.97701 28137 ft 322 kts 178°
2026-04-23 07:28 -25.61717 17.98427 28140 ft 322 kts 178°
2026-04-23 07:29 -25.66148 17.99158 28140 ft 322 kts 178°
2026-04-23 07:29 -25.70579 17.99890 28138 ft 322 kts 178°
2026-04-23 07:30 -25.75006 18.00621 28141 ft 322 kts 178°
2026-04-23 07:30 -25.79403 18.01350 28140 ft 321 kts 178°
2026-04-23 07:31 -25.83826 18.02079 28141 ft 321 kts 178°
2026-04-23 07:31 -25.88248 18.02813 28143 ft 321 kts 177°
2026-04-23 07:32 -25.92665 18.03545 28143 ft 321 kts 177°
2026-04-23 07:32 -25.97080 18.04278 28143 ft 321 kts 177°
2026-04-23 07:33 -26.01461 18.05005 28146 ft 320 kts 177°
2026-04-23 07:33 -26.05872 18.05738 28145 ft 321 kts 177°
2026-04-23 07:34 -26.10285 18.06471 28146 ft 321 kts 177°
2026-04-23 07:34 -26.14668 18.07201 28143 ft 321 kts 178°
2026-04-23 07:35 -26.19080 18.07935 28143 ft 321 kts 177°
2026-04-23 07:35 -26.23493 18.08671 28143 ft 321 kts 177°
2026-04-23 07:36 -26.27903 18.09406 28140 ft 320 kts 177°
2026-04-23 07:36 -26.32284 18.10137 28145 ft 321 kts 177°
2026-04-23 07:37 -26.36700 18.10875 28142 ft 321 kts 178°
2026-04-23 07:37 -26.41115 18.11613 28143 ft 321 kts 178°
2026-04-23 07:38 -26.45530 18.12351 28140 ft 321 kts 178°
2026-04-23 07:38 -26.49911 18.13085 28141 ft 320 kts 178°
2026-04-23 07:39 -26.54319 18.13824 28144 ft 320 kts 178°
2026-04-23 07:39 -26.58726 18.14562 28145 ft 320 kts 178°
2026-04-23 07:40 -26.63133 18.15303 28142 ft 320 kts 178°
2026-04-23 07:40 -26.67517 18.16037 28143 ft 321 kts 178°
2026-04-23 07:41 -26.71932 18.16780 28140 ft 321 kts 178°
2026-04-23 07:41 -26.76350 18.17523 28139 ft 321 kts 178°
2026-04-23 07:42 -26.80760 18.18266 28141 ft 320 kts 178°
2026-04-23 07:42 -26.85142 18.19004 28142 ft 320 kts 178°
2026-04-23 07:43 -26.89552 18.19747 28140 ft 321 kts 178°
2026-04-23 07:43 -26.93972 18.20493 28139 ft 322 kts 178°
2026-04-23 07:44 -26.98397 18.21240 28141 ft 321 kts 178°
2026-04-23 07:44 -27.02789 18.21983 28137 ft 321 kts 178°
2026-04-23 07:45 -27.07214 18.22730 28135 ft 322 kts 177°
2026-04-23 07:45 -27.11643 18.23482 28135 ft 322 kts 178°
2026-04-23 07:46 -27.16072 18.24230 28131 ft 322 kts 178°
2026-04-23 07:46 -27.20469 18.24977 28127 ft 322 kts 178°
2026-04-23 07:47 -27.24899 18.25728 28132 ft 322 kts 178°
2026-04-23 07:47 -27.29325 18.26480 28128 ft 322 kts 178°
2026-04-23 07:48 -27.33752 18.27232 28126 ft 322 kts 178°
2026-04-23 07:48 -27.38154 18.27981 28125 ft 322 kts 178°
2026-04-23 07:49 -27.42584 18.28735 28124 ft 322 kts 178°
2026-04-23 07:49 -27.47028 18.29491 28128 ft 323 kts 178°
2026-04-23 07:50 -27.51471 18.30119 28123 ft 320 kts 183°
2026-04-23 07:50 -27.55881 18.30477 28126 ft 320 kts 182°
2026-04-23 07:51 -27.60323 18.30845 28125 ft 320 kts 182°
2026-04-23 07:51 -27.64760 18.31206 28126 ft 320 kts 182°
2026-04-23 07:52 -27.69199 18.31572 28123 ft 320 kts 182°
2026-04-23 07:52 -27.73605 18.31932 28123 ft 320 kts 182°
2026-04-23 07:53 -27.78043 18.32297 28127 ft 320 kts 182°
2026-04-23 07:53 -27.82482 18.32662 28131 ft 320 kts 182°
2026-04-23 07:54 -27.86927 18.33028 28128 ft 320 kts 182°
2026-04-23 07:54 -27.91344 18.33390 28133 ft 320 kts 182°
2026-04-23 07:55 -27.95794 18.33753 28133 ft 320 kts 182°
2026-04-23 07:55 -28.00240 18.34117 28139 ft 320 kts 182°
2026-04-23 07:56 -28.04689 18.34481 28142 ft 321 kts 182°
2026-04-23 07:56 -28.09108 18.34843 28146 ft 321 kts 182°
2026-04-23 07:57 -28.13558 18.35293 28146 ft 324 kts 176°
2026-04-23 07:57 -28.17993 18.36249 28148 ft 324 kts 176°
2026-04-23 07:58 -28.22436 18.37167 28151 ft 325 kts 176°
2026-04-23 07:58 -28.26850 18.38094 28154 ft 325 kts 176°
2026-04-23 07:59 -28.31299 18.39025 28157 ft 325 kts 176°
2026-04-23 07:59 -28.35747 18.39958 28160 ft 325 kts 176°
2026-04-23 08:00 -28.40196 18.40892 28164 ft 325 kts 176°
2026-04-23 08:00 -28.44610 18.41820 28165 ft 325 kts 176°
2026-04-23 08:01 -28.49057 18.42754 28167 ft 325 kts 176°
2026-04-23 08:01 -28.53508 18.43692 28169 ft 325 kts 176°
2026-04-23 08:02 -28.57957 18.44629 28170 ft 325 kts 176°
2026-04-23 08:02 -28.62378 18.45561 28171 ft 325 kts 176°
2026-04-23 08:03 -28.66829 18.46500 28171 ft 325 kts 176°
2026-04-23 08:03 -28.71281 18.47441 28174 ft 325 kts 176°
2026-04-23 08:04 -28.75735 18.48382 28170 ft 326 kts 176°
2026-04-23 08:04 -28.80193 18.49326 28173 ft 326 kts 176°
2026-04-23 08:05 -28.84627 18.50264 28172 ft 327 kts 176°
2026-04-23 08:05 -28.89098 18.51212 28178 ft 327 kts 176°
2026-04-23 08:06 -28.93571 18.52160 28173 ft 327 kts 176°
2026-04-23 08:06 -28.98054 18.53112 28175 ft 328 kts 176°
2026-04-23 08:07 -29.02512 18.54060 28179 ft 328 kts 175°
2026-04-23 08:07 -29.07001 18.55014 28181 ft 328 kts 175°
2026-04-23 08:08 -29.11485 18.55969 28186 ft 328 kts 175°
2026-04-23 08:08 -29.15968 18.56924 28185 ft 328 kts 175°
2026-04-23 08:09 -29.20425 18.57874 28184 ft 328 kts 175°
2026-04-23 08:09 -29.24916 18.58834 28189 ft 328 kts 175°
2026-04-23 08:10 -29.29404 18.59792 28189 ft 328 kts 175°
2026-04-23 08:10 -29.36132 18.61231 28191 ft 328 kts 175°
2026-04-23 08:11 -29.40589 18.62185 28194 ft 328 kts 175°
2026-04-23 08:11 -29.45071 18.63146 28201 ft 328 kts 175°
2026-04-23 08:12 -29.49556 18.64108 28199 ft 328 kts 175°
2026-04-23 08:12 -29.54038 18.65070 28201 ft 328 kts 175°
2026-04-23 08:13 -29.58493 18.66027 28205 ft 328 kts 175°
2026-04-23 08:13 -29.62976 18.66992 28205 ft 328 kts 175°
2026-04-23 08:14 -29.67462 18.67957 28208 ft 328 kts 175°
2026-04-23 08:14 -29.71944 18.68923 28211 ft 328 kts 175°
2026-04-23 08:15 -29.76396 18.69883 28208 ft 327 kts 175°
2026-04-23 08:15 -29.80872 18.70849 28210 ft 327 kts 175°
2026-04-23 08:16 -29.85348 18.71816 28210 ft 327 kts 174°
2026-04-23 08:16 -29.89820 18.72783 28216 ft 327 kts 174°
2026-04-23 08:17 -29.94258 18.73744 28214 ft 327 kts 174°
2026-04-23 08:17 -29.98723 18.74711 28216 ft 326 kts 174°
2026-04-23 08:18 -30.03186 18.75679 28216 ft 326 kts 174°
2026-04-23 08:18 -30.07643 18.76646 28216 ft 326 kts 174°
2026-04-23 08:19 -30.12097 18.77614 28211 ft 325 kts 174°
2026-04-23 08:19 -30.16546 18.78581 28220 ft 325 kts 174°
2026-04-23 08:20 -30.20963 18.79543 28218 ft 325 kts 174°
2026-04-23 08:20 -30.25404 18.80510 28216 ft 325 kts 174°
2026-04-23 08:21 -30.29844 18.81478 28215 ft 324 kts 173°
2026-04-23 08:21 -30.34277 18.82446 28214 ft 324 kts 173°
2026-04-23 08:22 -30.38680 18.83407 28213 ft 324 kts 173°
2026-04-23 08:22 -30.43110 18.84375 28210 ft 324 kts 173°
2026-04-23 08:23 -30.47536 18.85345 28212 ft 324 kts 173°
2026-04-23 08:23 -30.51965 18.86315 28211 ft 324 kts 173°
2026-04-23 08:24 -30.56363 18.87280 28208 ft 324 kts 173°
2026-04-23 08:24 -30.60787 18.88250 28206 ft 323 kts 173°
2026-04-23 08:25 -30.64461 18.89057 28210 ft 323 kts 173°
2026-04-23 08:25 -30.68883 18.90029 28206 ft 323 kts 173°
2026-04-23 08:26 -30.74016 18.91159 28203 ft 323 kts 173°
2026-04-23 08:26 -30.78436 18.92131 28200 ft 323 kts 173°
2026-04-23 08:27 -30.82107 18.92941 28203 ft 323 kts 173°
2026-04-23 08:27 -30.86516 18.93914 28201 ft 322 kts 173°
2026-04-23 08:28 -30.90922 18.94887 28201 ft 322 kts 173°
2026-04-23 08:28 -30.95323 18.95860 28201 ft 322 kts 173°
2026-04-23 08:29 -30.99690 18.96827 28201 ft 321 kts 173°
2026-04-23 08:29 -31.04084 18.97799 28204 ft 321 kts 173°
2026-04-23 08:30 -31.08476 18.98774 28201 ft 321 kts 173°
2026-04-23 08:30 -31.12875 18.99750 28198 ft 322 kts 173°
2026-04-23 08:31 -31.17248 19.00719 28199 ft 322 kts 173°
2026-04-23 08:31 -31.21656 19.01701 28199 ft 323 kts 173°
2026-04-23 08:32 -31.26060 19.02680 28205 ft 322 kts 173°
2026-04-23 08:32 -31.30455 19.03660 28203 ft 321 kts 173°
2026-04-23 08:33 -31.34818 19.04633 28205 ft 321 kts 173°
2026-04-23 08:33 -31.39207 19.05610 28209 ft 321 kts 173°
2026-04-23 08:34 -31.43593 19.06591 28211 ft 321 kts 173°
2026-04-23 08:34 -31.47977 19.07571 28214 ft 321 kts 173°
2026-04-23 08:35 -31.52332 19.08546 28216 ft 321 kts 173°
2026-04-23 08:35 -31.56711 19.09527 28220 ft 320 kts 173°
2026-04-23 08:36 -31.61094 19.10510 28224 ft 321 kts 173°
2026-04-23 08:36 -31.65476 19.11494 28232 ft 321 kts 173°
2026-04-23 08:37 -31.69856 19.12476 28235 ft 320 kts 173°
2026-04-23 08:37 -31.74203 19.13455 28233 ft 320 kts 173°
2026-04-23 08:38 -31.78583 19.14441 28239 ft 320 kts 173°
2026-04-23 08:38 -31.82955 19.15425 28239 ft 320 kts 173°
2026-04-23 08:39 -31.87326 19.16411 28243 ft 320 kts 173°
2026-04-23 08:39 -31.91696 19.17398 28242 ft 320 kts 173°
2026-04-23 08:40 -31.96031 19.18378 28239 ft 319 kts 173°
2026-04-23 08:40 -32.00396 19.19366 28246 ft 319 kts 173°
2026-04-23 08:41 -32.04762 19.20352 28249 ft 319 kts 173°
2026-04-23 08:41 -32.09129 19.21342 28243 ft 320 kts 173°
2026-04-23 08:42 -32.13468 19.22328 28246 ft 320 kts 173°
2026-04-23 08:42 -32.17843 19.23319 28249 ft 321 kts 173°
2026-04-23 08:43 -32.22225 19.24317 28246 ft 320 kts 173°
2026-04-23 08:43 -32.26603 19.25311 28251 ft 320 kts 173°
2026-04-23 08:44 -32.30954 19.26303 28251 ft 320 kts 173°
2026-04-23 08:44 -32.35328 19.27297 28253 ft 320 kts 173°
2026-04-23 08:45 -32.39701 19.28296 28253 ft 320 kts 173°
2026-04-23 08:45 -32.44082 19.29294 28247 ft 321 kts 173°
2026-04-23 08:46 -32.48427 19.30288 28252 ft 320 kts 173°
2026-04-23 08:46 -32.52796 19.31288 28254 ft 320 kts 173°
2026-04-23 08:47 -32.57161 19.32286 28252 ft 319 kts 173°
2026-04-23 08:47 -32.61523 19.33286 28252 ft 319 kts 172°
2026-04-23 08:48 -32.65851 19.34280 28258 ft 319 kts 172°
2026-04-23 08:48 -32.70207 19.35279 28261 ft 319 kts 172°
2026-04-23 08:49 -32.74572 19.36283 28260 ft 320 kts 172°
2026-04-23 08:49 -32.78940 19.37286 28264 ft 320 kts 172°
2026-04-23 08:50 -32.83322 19.38048 28260 ft 318 kts 176°
2026-04-23 08:50 -32.87687 19.38660 28269 ft 318 kts 176°
2026-04-23 08:51 -32.92085 19.39258 28269 ft 318 kts 176°
2026-04-23 08:51 -32.96483 19.39860 28269 ft 318 kts 176°
2026-04-23 08:52 -33.00869 19.40461 28265 ft 317 kts 176°
2026-04-23 08:52 -33.05226 19.41060 28267 ft 318 kts 176°
2026-04-23 08:53 -33.09614 19.41660 28270 ft 317 kts 176°
2026-04-23 08:53 -33.13994 19.42263 28266 ft 317 kts 176°
2026-04-23 08:54 -33.18374 19.42865 28273 ft 317 kts 176°
2026-04-23 08:54 -33.22748 19.43468 28266 ft 316 kts 176°
2026-04-23 08:55 -33.26971 19.44765 28269 ft 321 kts 156°
2026-04-23 08:55 -33.30903 19.47311 28277 ft 321 kts 155°
2026-04-23 08:56 -33.34898 19.49704 28271 ft 321 kts 156°
2026-04-23 08:56 -33.38873 19.52156 28276 ft 321 kts 155°
2026-04-23 08:57 -33.42829 19.54578 28271 ft 322 kts 155°
2026-04-23 08:57 -33.46817 19.57020 28268 ft 322 kts 155°
2026-04-23 08:58 -33.50820 19.59482 27825 ft 331 kts 155°
2026-04-23 08:58 -33.52893 19.60753 27289 ft 337 kts 155°
2026-04-23 08:58 -33.54985 19.62039 26774 ft 338 kts 154°
2026-04-23 08:59 -33.57077 19.63330 26253 ft 338 kts 155°
2026-04-23 08:59 -33.59144 19.64602 25760 ft 339 kts 154°
2026-04-23 08:59 -33.61241 19.65891 25264 ft 339 kts 154°
2026-04-23 08:59 -33.63340 19.67185 24777 ft 339 kts 154°
2026-04-23 09:00 -33.65442 19.68483 24293 ft 340 kts 154°
2026-04-23 09:00 -33.67543 19.69777 23815 ft 340 kts 154°
2026-04-23 09:00 -33.69650 19.71080 23251 ft 341 kts 153°
2026-04-23 09:00 -33.71763 19.72384 22696 ft 342 kts 154°
2026-04-23 09:01 -33.73886 19.73690 22150 ft 343 kts 153°
2026-04-23 09:01 -33.76010 19.75009 21615 ft 344 kts 153°
2026-04-23 09:01 -33.78115 19.76316 21103 ft 346 kts 153°
2026-04-23 09:01 -33.80262 19.77639 20588 ft 347 kts 153°
2026-04-23 09:02 -33.82412 19.78969 20079 ft 348 kts 153°
2026-04-23 09:02 -33.84571 19.80310 19579 ft 350 kts 153°
2026-04-23 09:02 -33.86735 19.81655 19092 ft 351 kts 153°
2026-04-23 09:02 -33.88909 19.83003 18607 ft 352 kts 153°
2026-04-23 09:03 -33.91092 19.84351 18062 ft 353 kts 153°
2026-04-23 09:03 -33.93276 19.85710 17517 ft 353 kts 153°
2026-04-23 09:03 -33.95457 19.87068 16987 ft 353 kts 153°
2026-04-23 09:03 -33.97608 19.88410 16462 ft 352 kts 153°
2026-04-23 09:04 -33.99776 19.89751 15946 ft 349 kts 153°
2026-04-23 09:04 -34.01931 19.91091 15437 ft 347 kts 153°
2026-04-23 09:04 -34.04065 19.92421 14939 ft 344 kts 153°
2026-04-23 09:04 -34.06182 19.93747 14443 ft 341 kts 152°
2026-04-23 09:05 -34.08283 19.95064 13947 ft 339 kts 153°
2026-04-23 09:05 -34.10369 19.96355 13401 ft 335 kts 152°
2026-04-23 09:05 -34.12429 19.97644 12865 ft 332 kts 152°
2026-04-23 09:05 -34.14432 19.98897 12343 ft 324 kts 152°
2026-04-23 09:06 -34.16410 20.00128 11822 ft 316 kts 152°
2026-04-23 09:06 -34.18342 20.01341 11301 ft 311 kts 151°
2026-04-23 09:06 -34.20246 20.02527 10798 ft 305 kts 151°
2026-04-23 09:06 -34.22113 20.03698 10301 ft 300 kts 151°
2026-04-23 09:07 -34.23955 20.04859 9775 ft 297 kts 151°
2026-04-23 09:07 -34.25780 20.06002 9227 ft 294 kts 150°
2026-04-23 09:07 -34.27590 20.07145 8699 ft 293 kts 150°
2026-04-23 09:07 -34.29368 20.08250 8182 ft 290 kts 150°
2026-04-23 09:08 -34.31155 20.09364 7675 ft 288 kts 150°
2026-04-23 09:08 -34.32932 20.10467 7176 ft 287 kts 150°
2026-04-23 09:08 -34.34694 20.11597 6666 ft 286 kts 149°
2026-04-23 09:08 -34.36447 20.12716 6134 ft 285 kts 149°
2026-04-23 09:09 -34.38212 20.13805 5623 ft 285 kts 150°
2026-04-23 09:09 -34.39977 20.14891 5103 ft 283 kts 148°
2026-04-23 09:09 -34.41705 20.16003 4570 ft 281 kts 148°
2026-04-23 09:09 -34.43432 20.17098 4042 ft 280 kts 149°
2026-04-23 09:10 -34.45140 20.18167 3534 ft 281 kts 149°
2026-04-23 09:10 -34.48577 20.20353 2496 ft 277 kts 149°
2026-04-23 09:10 -34.50224 20.21358 2288 ft 246 kts 149°
2026-04-23 09:11 -34.51635 20.22240 2274 ft 211 kts 147°
2026-04-23 09:11 -34.52842 20.23027 2280 ft 183 kts 147°
2026-04-23 09:11 -34.53909 20.23711 2274 ft 164 kts 147°
2026-04-23 09:11 -34.54890 20.24324 2252 ft 161 kts 147°
2026-04-23 09:12 -34.55849 20.24919 2292 ft 156 kts 148°
2026-04-23 09:12 -34.56825 20.25517 2263 ft 158 kts 145°
2026-04-23 09:12 -34.57447 20.26470 2273 ft 147 kts 99°
2026-04-23 09:12 -34.57512 20.27681 2137 ft 142 kts 86°
2026-04-23 09:13 -34.57290 20.28816 1722 ft 135 kts 58°
2026-04-23 09:13 -34.56734 20.29736 1286 ft 135 kts 44°
2026-04-23 09:13 -34.55858 20.30142 883 ft 143 kts
2026-04-23 09:13 -34.54969 20.29645 696 ft 143 kts 311°
2026-04-23 09:14 -34.54768 20.28506 444 ft 142 kts 262°
2026-04-23 09:14 -34.54968 20.27348 304 ft 138 kts 255°
2026-04-23 09:14 -34.55205 20.26246 225 ft 136 kts 256°
2026-04-23 09:14 -34.55436 20.25164 88 ft 130 kts 256°
2026-04-23 09:15 -34.55628 20.24277 54 ft 70 kts 255°
2026-04-23 09:15 -34.55685 20.24018 56 ft 26 kts 255°
2026-04-23 09:15 -34.55743 20.23914 56 ft 15 kts 191°
2026-04-23 09:15 -34.55853 20.23939 54 ft 16 kts 163°
2026-04-23 09:16 -34.55950 20.23980 50 ft 13 kts 126°
2026-04-23 09:16 -34.55954 20.24070 54 ft 9 kts 75°
2026-04-23 09:16 -34.55939 20.24139 53 ft 8 kts 75°
2026-04-23 09:16 -34.55923 20.24212 53 ft 9 kts 74°
2026-04-23 09:17 -34.55907 20.24287 53 ft 9 kts 76°
2026-04-23 09:17 -34.55891 20.24363 51 ft 10 kts 75°
2026-04-23 09:17 -34.55870 20.24455 52 ft 12 kts 75°
2026-04-23 09:17 -34.55851 20.24547 52 ft 5 kts 90°
2026-04-23 09:18 -34.55894 20.24573 52 ft 10 kts 165°
2026-04-23 09:18 -34.55957 20.24606 52 ft 9 kts 109°
2026-04-23 09:18 -34.55949 20.24678 48 ft 9 kts 76°
2026-04-23 09:18 -34.55955 20.24714 48 ft 3 kts 168°
2026-04-23 09:19 -34.55963 20.24716 50 ft 0 kts 166°
2026-04-23 09:20 -34.55962 20.24716 50 ft 0 kts 166°